Wetterstats.de || Aktuelle Messwerte / Archiv || Stationsstandorte || Wetterblog || Wissenswertes


Monatsübersicht für April 2019 Diagramm
 
Wetter Information zur Wetteranzeige
Zeitraffer
Tageslänge (hh:mm)
Höchsttemperatur in °C
Uhrzeit
Tiefsttemperatur in °C
Uhrzeit
Luftfeuchte (max., in %)
Uhrzeit
Luftfeuchte (min., in %)
Uhrzeit
Luftdruck (max., in hPa)
Uhrzeit
Luftdruck (min., in hPa)
Uhrzeit
Luftdruck (Ø, in hPa)
Regenrate (max, mm/h)
Uhrzeit
Niederschlag in mm
Niederschlagsdauer (hh:mm)
Verdunstung in mm
Solar in W/m² (Ø)
Solar in W/m² (max.)
UV-Index (max.)
Sonnenscheindauer (hh:mm)
Windrichtung (Ø)
Windstärke (Ø in km/h)
Windstärke (Ø in bft)
Windböe (max., in km/h)
Uhrzeit
Windböe (max., in bft)
Uhrzeit
Taupunkt (max., in °C)
Uhrzeit
Taupunkt (min., in °C)
Uhrzeit
Windchill (min., in °C)
Uhrzeit
Gewitterindex (max.)
Uhrzeit
Waldbrandindex (max.)
Uhrzeit
Graslandfeuerindex (max.)
Uhrzeit
Staubsturm-Index (max.)
Uhrzeit
01
Zeitraffer
13:04
10.8
16:55 Uhr
0.8
07:05 Uhr

72
07:40 Uhr
34
17:20 Uhr
1028.3
10:30 Uhr

1022.0
23:40 Uhr
1025.6
0,000
00:00 Uhr
0,000
1.930
212
622
12:30 Uhr
1.8
12:45 Uhr

06:15:00
3,3
1
29,0
14:55 Uhr

4
-1.6
09:05 Uhr
-5.0
14:25 Uhr
0.8
07:05 Uhr
0
00:00 Uhr
0.0
00:00 Uhr
0.0
00:00 Uhr
0.0
00:00 Uhr
02
Zeitraffer
13:07
14.7
17:10 Uhr
3.2
06:55 Uhr

61
07:10 Uhr
36
15:00 Uhr
1021.9
00:00 Uhr

1006.4
23:15 Uhr
1013.5
0,000
00:00 Uhr
0,000
2.108
211
576
12:25 Uhr
1.7
12:15 Uhr

06:15:00
4,4
1
22,5
09:20 Uhr

4
2.4
23:30 Uhr
-5.3
02:15 Uhr
3.2
06:55 Uhr
0
00:00 Uhr
0.0
00:00 Uhr
0.0
00:00 Uhr
0.0
00:00 Uhr
03
Zeitraffer
13:12
18.7
16:45 Uhr
9.4
06:25 Uhr

67
08:00 Uhr
40
12:35 Uhr
1006.4
00:00 Uhr

999.3
22:20 Uhr
1003.0
0,000
00:00 Uhr
0,000
1.829
169
536
12:15 Uhr
1.5
12:15 Uhr

03:10:00
2,5
1
25,7
15:05 Uhr

4
6.2
18:05 Uhr
2.4
00:10 Uhr
9.4
06:25 Uhr
0
00:00 Uhr
0.0
00:00 Uhr
0.0
00:00 Uhr
0.0
00:00 Uhr
04
Zeitraffer
13:16
20.1
18:35 Uhr
10.2
07:10 Uhr

64
07:10 Uhr
37
15:30 Uhr
999.8
23:45 Uhr

996.6
16:30 Uhr
998.0
0,000
00:00 Uhr
0,000
2.210
193
595
12:45 Uhr
1.7
12:30 Uhr

05:55:00
3,2
1
25,7
17:25 Uhr

4
6.3
20:35 Uhr
3.5
06:30 Uhr
10.2
07:10 Uhr
0
00:00 Uhr
0.0
00:00 Uhr
0.0
00:00 Uhr
0.0
00:00 Uhr
05
Zeitraffer
13:20
15.7
00:00 Uhr
9.7
07:00 Uhr

75
23:10 Uhr
51
00:00 Uhr
1005.8
20:55 Uhr

999.8
00:00 Uhr
1003.6
0,000
00:00 Uhr
0,000
1.295
131
468
10:35 Uhr
1.0
10:35 Uhr

03:30:00
0,9
0
12,9
04:45 Uhr

2
8.6
18:15 Uhr
4.0
06:45 Uhr
9.7
07:00 Uhr
0
00:00 Uhr
0.0
00:00 Uhr
0.0
00:00 Uhr
0.0
00:00 Uhr
06
Zeitraffer
13:24
20.5
16:00 Uhr
9.8
03:30 Uhr

79
03:15 Uhr
34
16:00 Uhr
1007.5
09:10 Uhr

1005.5
16:15 Uhr
1006.4
0,000
00:00 Uhr
0,000
2.006
186
556
12:15 Uhr
1.7
12:30 Uhr

05:05:00
3,9
1
35,4
16:25 Uhr

5
7.9
11:50 Uhr
4.0
16:40 Uhr
9.8
03:30 Uhr
0
00:00 Uhr
0.0
00:00 Uhr
0.0
00:00 Uhr
0.0
00:00 Uhr
07
Zeitraffer
13:28
18.9
12:35 Uhr
8.8
07:05 Uhr

68
07:20 Uhr
30
19:10 Uhr
1008.5
23:30 Uhr

1006.2
02:40 Uhr
1007.0
0,000
00:00 Uhr
0,000
00:00:00
2.337
205
600
12:30 Uhr
1.9
12:35 Uhr

05:58:00
3,4
1
29,0
12:30 Uhr

4
6.7
10:25 Uhr
0.2
20:10 Uhr
8.8
07:05 Uhr
0
00:00 Uhr
0.0
00:00 Uhr
0.0
00:00 Uhr
0.0
00:00 Uhr
08
Zeitraffer
13:32
20.1
12:50 Uhr
7.7
23:50 Uhr

71
23:50 Uhr
30
12:00 Uhr
1012.0
23:45 Uhr

1008.2
03:50 Uhr
1009.2
0,000
00:00 Uhr
0,000
00:00:00
2.261
210
599
12:05 Uhr
1.8
12:50 Uhr

06:02:00
2,5
1
22,5
18:30 Uhr

4
6.6
19:40 Uhr
1.0
12:00 Uhr
6.1
22:45 Uhr
0
00:00 Uhr
0.0
00:00 Uhr
0.0
00:00 Uhr
0.0
00:00 Uhr
09
Zeitraffer
13:37
11.2
17:25 Uhr
4.1
07:50 Uhr

78
05:20 Uhr
42
17:20 Uhr
1015.7
23:50 Uhr

1011.9
00:30 Uhr
1013.7
0,000
00:00 Uhr
0,000
00:00:00
1.854
208
624
12:15 Uhr
1.7
12:50 Uhr

04:46:00
4,4
1
29,0
14:05 Uhr

4
2.7
00:05 Uhr
-1.8
22:55 Uhr
1.7
07:45 Uhr
0
00:00 Uhr
0.0
00:00 Uhr
0.0
00:00 Uhr
0.0
00:00 Uhr
10
Zeitraffer
13:40
9.3
14:45 Uhr
2.6
05:45 Uhr

78
06:00 Uhr
39
13:55 Uhr
1020.8
23:50 Uhr

1015.5
01:35 Uhr
1017.0
0,000
00:00 Uhr
0,000
00:00:00
1.524
161
729
11:30 Uhr
1.8
12:30 Uhr

01:45:00
3,3
1
25,7
16:00 Uhr

4
0.0
08:45 Uhr
-5.1
19:05 Uhr
2.4
09:40 Uhr
0
00:00 Uhr
0.0
00:00 Uhr
0.0
00:00 Uhr
0.0
00:00 Uhr
11
Zeitraffer
13:44
7.3
10:30 Uhr
1.7
06:35 Uhr

76
06:35 Uhr
43
11:05 Uhr
1025.5
23:35 Uhr

1020.9
00:00 Uhr
1023.4
0,000
00:00 Uhr
0,000
00:00:00
1.575
181
756
10:55 Uhr
1.2
10:50 Uhr

04:23:00
5,0
1
25,7
10:10 Uhr

4
-0.2
09:00 Uhr
-5.2
12:35 Uhr
-0.5
04:20 Uhr
0
00:00 Uhr
0.0
00:00 Uhr
0.0
00:00 Uhr
0.0
00:00 Uhr
12
Zeitraffer
13:49
5.3
14:10 Uhr
2.7
05:25 Uhr

78
06:00 Uhr
55
12:15 Uhr
1025.6
00:40 Uhr

1024.1
17:20 Uhr
1025.0
0,000
00:00 Uhr
0,000
00:00:00
0.890
66
166
13:55 Uhr
0.6
13:30 Uhr

00:00:00
4,3
1
24,1
10:20 Uhr

4
-0.7
04:30 Uhr
-3.8
11:40 Uhr
-1.0
09:45 Uhr
0
00:00 Uhr
0.0
00:00 Uhr
0.0
00:00 Uhr
0.0
00:00 Uhr
13
Zeitraffer
13:53
7.4
13:20 Uhr
2.6
06:20 Uhr

74
03:40 Uhr
46
15:45 Uhr
1025.0
00:05 Uhr

1022.2
18:10 Uhr
1023.5
0,000
00:00 Uhr
0,000
00:00:00
1.067
98
399
12:15 Uhr
1.0
12:10 Uhr

00:07:00
4,0
1
25,7
16:15 Uhr

4
-0.8
11:50 Uhr
-3.9
15:45 Uhr
1.3
23:10 Uhr
0
00:00 Uhr
0.0
00:00 Uhr
0.0
00:00 Uhr
0.0
00:00 Uhr
14
Zeitraffer
13:56
9.9
17:55 Uhr
3.1
06:20 Uhr

89
10:45 Uhr
61
18:00 Uhr
1026.8
23:50 Uhr

1023.1
06:05 Uhr
1024.2
2,400
08:10 Uhr
0,600
00:03:00
0.711
56
171
14:30 Uhr
0.7
14:30 Uhr

00:00:00
4,6
1
24,1
16:15 Uhr

4
4.0
15:20 Uhr
-1.6
00:00 Uhr
-0.9
05:00 Uhr
0
00:00 Uhr
0.0
00:00 Uhr
0.0
00:00 Uhr
0.0
00:00 Uhr
15
Zeitraffer
14:00
12.9
13:00 Uhr
2.3
06:40 Uhr

71
06:50 Uhr
32
17:35 Uhr
1029.0
09:45 Uhr

1023.9
19:15 Uhr
1026.7
0,000
00:00 Uhr
0,000
00:00:00
2.210
234
655
12:10 Uhr
1.7
12:05 Uhr

06:45:00
4,0
1
25,7
15:10 Uhr

4
0.7
00:00 Uhr
-3.9
17:35 Uhr
2.3
06:40 Uhr
0
00:00 Uhr
0.0
00:00 Uhr
0.0
00:00 Uhr
0.0
00:00 Uhr


 
Wetter Information zur Wetteranzeige
Zeitraffer
Tageslänge (hh:mm)
Höchsttemperatur in °C
Uhrzeit
Tiefsttemperatur in °C
Uhrzeit
Luftfeuchte (max., in %)
Uhrzeit
Luftfeuchte (min., in %)
Uhrzeit
Luftdruck (max., in hPa)
Uhrzeit
Luftdruck (min., in hPa)
Uhrzeit
Luftdruck (Ø, in hPa)
Regenrate (max, mm/h)
Uhrzeit
Niederschlag in mm
Niederschlagsdauer (hh:mm)
Verdunstung in mm
Solar in W/m² (Ø)
Solar in W/m² (max.)
UV-Index (max.)
Sonnenscheindauer (hh:mm)
Windrichtung (Ø)
Windstärke (Ø in km/h)
Windstärke (Ø in bft)
Windböe (max., in km/h)
Uhrzeit
Windböe (max., in bft)
Uhrzeit
Taupunkt (max., in °C)
Uhrzeit
Taupunkt (min., in °C)
Uhrzeit
Windchill (min., in °C)
Uhrzeit
Gewitterindex (max.)
Uhrzeit
Waldbrandindex (max.)
Uhrzeit
Graslandfeuerindex (max.)
Uhrzeit
Staubsturm-Index (max.)
Uhrzeit
16
Zeitraffer
14:05
14.8
16:40 Uhr
2.2
06:00 Uhr

75
06:05 Uhr
27
17:45 Uhr
1024.7
23:55 Uhr

1021.2
15:50 Uhr
1022.9
0,000
00:00 Uhr
0,000
00:00:00
2.362
234
652
12:55 Uhr
1.7
12:50 Uhr

06:27:00
3,8
1
32,2
11:55 Uhr

5
0.4
10:30 Uhr
-4.2
18:40 Uhr
2.0
08:00 Uhr
0
00:00 Uhr
0.0
00:00 Uhr
0.0
00:00 Uhr
0.0
00:00 Uhr
17
Zeitraffer
14:09
17.2
18:10 Uhr
4.4
06:05 Uhr

61
06:35 Uhr
37
17:30 Uhr
1027.8
23:55 Uhr

1024.7
00:00 Uhr
1026.3
0,000
00:00 Uhr
0,000
00:00:00
2.489
241
754
12:55 Uhr
2.2
13:10 Uhr

06:35:00
3,9
1
25,7
15:50 Uhr

4
4.7
12:40 Uhr
-3.6
02:45 Uhr
4.4
06:05 Uhr
0
00:00 Uhr
0.0
00:00 Uhr
0.0
00:00 Uhr
0.0
00:00 Uhr
18
Zeitraffer
14:12
20.3
12:35 Uhr
6.9
06:05 Uhr

71
06:05 Uhr
25
16:25 Uhr
1030.7
23:55 Uhr

1027.7
00:00 Uhr
1029.2
0,000
00:00 Uhr
0,000
00:00:00
2.718
229
657
12:55 Uhr
2.3
12:25 Uhr

06:43:00
3,7
1
33,8
13:20 Uhr

5
4.5
10:30 Uhr
-0.6
16:25 Uhr
6.9
06:05 Uhr
0
00:00 Uhr
0.0
00:00 Uhr
0.0
00:00 Uhr
0.0
00:00 Uhr
19
Zeitraffer
14:16
21.8
12:40 Uhr
9.4
06:25 Uhr

62
02:20 Uhr
25
13:10 Uhr
1032.9
09:40 Uhr

1030.2
18:25 Uhr
1031.6
0,000
00:00 Uhr
0,000
00:00:00
2.997
237
670
12:20 Uhr
2.7
12:40 Uhr

06:40:00
3,5
1
25,7
18:10 Uhr

4
4.6
11:00 Uhr
-1.3
20:45 Uhr
9.4
06:25 Uhr
0
00:00 Uhr
0.0
00:00 Uhr
0.0
00:00 Uhr
0.0
00:00 Uhr
20
Zeitraffer
21.3
12:55 Uhr
6.8
06:10 Uhr

68
07:00 Uhr
22
18:15 Uhr
1031.7
00:30 Uhr

1026.7
19:03 Uhr
1029.8
0,000
00:00 Uhr
0,000
00:00:00
2.210
246
693
13:10 Uhr
2.7
13:05 Uhr

06:37:00
1,3
0
22,5
18:35 Uhr

4
6.2
10:35 Uhr
-2.5
18:15 Uhr
6.8
06:10 Uhr
0
00:00 Uhr
0.0
00:00 Uhr
0.0
00:00 Uhr
0.0
00:00 Uhr
21
Zeitraffer
14:24
20.7
12:30 Uhr
7.9
06:05 Uhr

61
06:20 Uhr
28
13:45 Uhr
1026.1
03:00 Uhr

1018.5
20:20 Uhr
1022.1
0,000
03:00 Uhr
0,000
00:00:00
2.743
240
687
12:15 Uhr
3.0
13:10 Uhr

06:36:00
2,0
0
19,3
03:00 Uhr

3
3.9
11:15 Uhr
0.5
13:45 Uhr
7.9
06:05 Uhr
0
03:00 Uhr
0.0
00:00 Uhr
0.0
00:00 Uhr
0.0
00:00 Uhr
22
Zeitraffer
14:28
17.4
12:55 Uhr
8.8
06:15 Uhr

58
23:45 Uhr
32
11:00 Uhr
1018.9
00:10 Uhr

1014.4
23:55 Uhr
1016.7
0,000
00:00 Uhr
0,000
00:00:00
2.997
244
707
12:20 Uhr
3.0
12:25 Uhr

06:33:00
5,0
1
38,6
15:05 Uhr

5
5.3
23:30 Uhr
-1.0
11:00 Uhr
8.7
06:35 Uhr
0
00:00 Uhr
0.0
00:00 Uhr
0.0
00:00 Uhr
0.0
00:00 Uhr
23
Zeitraffer
14:32
18.7
14:55 Uhr
10.0
06:15 Uhr

63
20:00 Uhr
41
12:40 Uhr
1014.5
00:00 Uhr

1006.0
20:25 Uhr
1009.6
0,000
00:00 Uhr
0,000
00:00:00
3.277
272
682
12:15 Uhr
2.2
12:00 Uhr

06:34:00
7,8
2
45,1
12:35 Uhr

6
8.6
19:15 Uhr
1.9
08:05 Uhr
6.2
07:45 Uhr
0
00:00 Uhr
0.0
00:00 Uhr
0.0
00:00 Uhr
0.0
00:00 Uhr
24
Zeitraffer
14:36
22.4
17:25 Uhr
13.2
06:05 Uhr

70
06:25 Uhr
42
17:50 Uhr
1006.5
00:15 Uhr

1004.6
17:40 Uhr
1005.8
0,000
00:00 Uhr
0,000
00:00:00
2.311
187
643
12:00 Uhr
2.2
12:10 Uhr

03:50:00
4,9
1
29,0
15:30 Uhr

4
10.7
18:40 Uhr
6.4
00:05 Uhr
11.5
03:05 Uhr
4
21:00 Uhr
0.0
00:00 Uhr
0.0
00:00 Uhr
0.0
00:00 Uhr
25
Zeitraffer
14:40
25.3
12:35 Uhr
15.4
07:00 Uhr

75
04:45 Uhr
27
15:05 Uhr
1011.7
11:05 Uhr

1004.9
01:25 Uhr
1009.2
0,000
00:00 Uhr
0,000
00:00:00
2.540
236
752
12:25 Uhr
2.9
12:45 Uhr

05:16:00
0,9
0
16,1
15:45 Uhr

3
12.1
04:45 Uhr
3.4
15:20 Uhr
15.4
07:00 Uhr
4
04:25 Uhr
2.2
21:25 Uhr
3.5
21:20 Uhr
0.0
00:00 Uhr
26
Zeitraffer
14:43
26.2
12:25 Uhr
15.3
05:55 Uhr

66
06:20 Uhr
41
14:55 Uhr
1009.5
23:20 Uhr

1005.7
12:15 Uhr
1007.0
0,000
00:00 Uhr
0,000
00:00:00
2.311
200
752
12:15 Uhr
2.7
12:20 Uhr

04:41:00
0,9
0
14,5
01:30 Uhr

3
12.5
13:05 Uhr
5.4
00:05 Uhr
15.2
06:15 Uhr
4
13:05 Uhr
3.4
15:05 Uhr
5.3
17:05 Uhr
0.5
17:05 Uhr
27
Zeitraffer
14:47
20.2
13:45 Uhr
12.3
06:10 Uhr

79
01:25 Uhr
43
16:25 Uhr
1011.7
09:10 Uhr

1009.1
00:20 Uhr
1010.7
2,400
01:10 Uhr
0,200
00:01:00
1.219
114
513
10:55 Uhr
1.7
13:00 Uhr

00:10:00
0,3
0
9,7
18:25 Uhr

2
11.6
00:55 Uhr
6.5
18:30 Uhr
12.3
06:10 Uhr
4
00:55 Uhr
3.8
16:05 Uhr
5.8
16:10 Uhr
1.1
18:25 Uhr
28
Zeitraffer
14:51
14.6
16:45 Uhr
10.8
08:15 Uhr

84
07:25 Uhr
58
17:15 Uhr
1019.1
23:10 Uhr

1011.5
00:00 Uhr
1015.5
0,000
00:00 Uhr
0,000
00:00:00
0.762
81
389
11:40 Uhr
2.2
13:20 Uhr

00:01:00
0,1
0
8,0
18:05 Uhr

2
8.8
09:35 Uhr
6.0
19:00 Uhr
10.8
08:15 Uhr
0
00:00 Uhr
3.8
17:35 Uhr
5.9
18:05 Uhr
1.0
18:00 Uhr
29
Zeitraffer
14:55
16.3
17:30 Uhr
8.6
23:55 Uhr

87
09:20 Uhr
42
20:15 Uhr
1019.1
00:00 Uhr

1014.9
16:25 Uhr
1016.8
2,400
09:50 Uhr
0,400
00:02:00
0.737
52
165
14:15 Uhr
1.0
14:05 Uhr

00:00:00
1,1
0
30,6
17:10 Uhr

5
10.8
16:10 Uhr
0.3
20:20 Uhr
8.6
23:55 Uhr
2
15:05 Uhr
4.3
21:05 Uhr
5.9
16:20 Uhr
2.4
19:30 Uhr
30
Zeitraffer
14:58
17.9
12:10 Uhr
4.7
05:40 Uhr

74
04:15 Uhr
24
16:50 Uhr
1017.8
00:00 Uhr

1014.8
23:40 Uhr
1016.5
0,000
00:00 Uhr
0,000
00:00:00
2.540
271
730
12:10 Uhr
2.8
12:40 Uhr

06:36:00
1,2
0
20,9
15:25 Uhr

4
2.9
08:05 Uhr
-3.4
17:55 Uhr
4.7
05:40 Uhr
0
00:00 Uhr
5.9
13:00 Uhr
5.9
00:00 Uhr
2.0
15:30 Uhr

Seiten-Historie || Downloads || Impressum / Datenschutz